Location: Auttagershofen
(48.1940°N, 10.0237°E)
Time: 06:24:41
(UTC+00:00)

Nadezhda 3 Rocket - Pass Details

Date: 18 January 2026
Orbit: 956 x 997 km, 82.9° (Epoch: 17 February)

Event Time Altitude Azimuth Distance (km) Brightness Sun altitude
Rises 05:29:03 0° 346° (NNW) 3,679 6.7 -15.4°
Reaches altitude 10° 05:31:40 10° 340° (NNW) 2,733 6.0 -14.9°
Maximum altitude 05:37:31 44° 271° (W) 1,340 4.3 -14.0°
Drops below altitude 10° 05:43:24 10° 201° (SSW) 2,742 6.3 -13.0°
Sets 05:46:02 0° 195° (SSW) 3,691 7.1 -12.6°
